INTELSAT 904 (IS-904)

Last updated on Mon Sep 07 2026 00:02:56 GMT+0000 (Coordinated Universal Time)

1 27380U 02007A 26249.37169457 -.00000240 00000+0 00000+0 0 9999 2 27380 7.1170 68.1747 0003043 95.7814 283.8503 1.00271557 52582
UTC large
Height (km)
Speed (km/s)
/
Latitude / Longitude
Inclination (degrees)
Orbital Period (minutes)
Azimuth
Elevation
Range (km)
Doppler Factor

Next 0 passes for location: London (51.5072 / 0.1276)

No passes found over London.
INTELSAT 904 (IS-904)